Flag for Turkey Weather past 2 weeks in Istanbul, Turkey

Now
52 °F

Passing clouds.


Feels Like: 50 °F
Forecast: 51 / 64 °F
Wind: 6 mph from Southwest

Location: Istanbul Ataturk Airport

Current Time: Apr 1, 2015 at 1:19:22 AM

Latest Report: Apr 1, 2015 at 12:20 AM


Visibility: N/A

Pressure: 29.83 "Hg

Humidity: 88%

Dew point: 48 °F

Location of IstanbulLocation

Historic Weather in Istanbul — Graph

°F

Istanbul temperature yesterday

Maximum temperature yesterday: 59 °F (at 4:50 PM)
Minimum temperature yesterday: 50 °F (at 10:20 PM)
Average temperature yesterday: 54 °F

Past Weeks' High & Low Weather Summary

 TemperatureHumidityPressure
High75 °F (Mar 27, 3:50 PM)94% (Mar 23, 3:50 PM)30.45 "Hg (Mar 23, 3:50 PM)
Low37 °F (Mar 18, 2:50 AM)29% (Mar 25, 11:50 AM)29.62 "Hg (Mar 28, 2:20 PM)
Average50 °F69%30.03 "Hg
* Reported Mar 16 10:20 PM — Mar 31 11:50 PM, Istanbul, Weather by CustomWeather, © 2015

Note: Actual official high and low records may vary slightly from our data, if they occured in-between our weather recording intervals... More about our weather records

Advertising

Istanbul weather history for previous 24 hours

 ConditionsComfort  
Time TempWeatherWind HumidityBarometerVisibility
11:50 PM
Tue, Mar 31
52 °FClear.7 mph88%29.83 "Hg10 mi
11:20 PM52 °FClear.7 mph82%29.83 "Hg10 mi
10:50 PM50 °FClear.7 mph94%29.83 "Hg10 mi
10:20 PM50 °FClear.6 mph94%29.83 "Hg10 mi
9:50 PM52 °FClear.7 mph88%29.83 "Hg10 mi
9:20 PM52 °FPassing clouds.5 mph82%29.83 "HgN/A
8:50 PM52 °FClear.5 mph82%29.83 "Hg10 mi
8:20 PM54 °FScattered clouds.3 mph77%29.83 "HgN/A
7:50 PM54 °FPassing clouds.5 mph77%29.83 "HgN/A
7:20 PM54 °FScattered clouds.6 mph77%29.83 "HgN/A
6:50 PM55 °FBroken clouds.7 mph72%29.83 "HgN/A
6:20 PM57 °FBroken clouds.7 mph72%29.83 "Hg6 mi
5:50 PM57 °FBroken clouds.6 mph67%29.80 "HgN/A
5:20 PM57 °FBroken clouds.6 mph72%29.80 "HgN/A
4:50 PM59 °FBroken clouds.2 mph68%29.80 "HgN/A
4:20 PM57 °FBroken clouds.5 mph72%29.80 "HgN/A
3:50 PM55 °FBroken clouds.5 mph77%29.83 "HgN/A
3:20 PM54 °FBroken clouds.8 mph88%29.83 "HgN/A
2:50 PM54 °FBroken clouds.9 mph88%29.83 "HgN/A
1:50 PM54 °FBroken clouds.8 mph94%29.83 "HgN/A
1:20 PM54 °FPartly sunny.8 mph88%29.83 "HgN/A
12:50 PM52 °FSprinkles. Partly sunny.7 mph94%29.83 "Hg5 mi
12:20 PM54 °FSprinkles. Partly sunny.9 mph88%29.83 "Hg4 mi
11:50 AM54 °FSprinkles. Partly sunny.8 mph88%29.83 "Hg4 mi
11:20 AM54 °FSprinkles. Partly sunny.7 mph88%29.83 "Hg4 mi
10:50 AM52 °FSprinkles. Partly sunny.8 mph94%29.83 "Hg4 mi
10:20 AM52 °FSprinkles. Partly sunny.8 mph94%29.80 "Hg4 mi
10:01 AM54 °FSprinkles. Partly sunny.8 mph88%29.80 "Hg4 mi
9:20 AM55 °FBroken clouds.7 mph77%29.77 "HgN/A
8:50 AM54 °FBroken clouds.5 mph82%29.77 "HgN/A
8:20 AM54 °FBroken clouds.3 mph88%29.77 "HgN/A
7:50 AM54 °FBroken clouds.1 mph88%29.77 "HgN/A
7:20 AM54 °FPartly cloudy.2 mph88%29.74 "HgN/A
6:50 AM54 °FSprinkles. Partly cloudy.7 mph82%29.74 "HgN/A
6:20 AM54 °FSprinkles. Partly cloudy.6 mph82%29.74 "HgN/A
5:50 AM52 °FSprinkles. Partly cloudy.6 mph88%29.74 "HgN/A
5:20 AM52 °FSprinkles. Partly cloudy.5 mph88%29.74 "HgN/A
4:50 AM54 °FSprinkles. Partly cloudy.9 mph82%29.74 "HgN/A
4:20 AM54 °FSprinkles. Partly cloudy.8 mph82%29.74 "HgN/A
3:50 AM52 °FSprinkles. Partly cloudy.8 mph88%29.74 "HgN/A
3:20 AM54 °FSprinkles. Partly cloudy.7 mph82%29.74 "HgN/A
2:50 AM54 °FPartly cloudy.5 mph82%29.74 "HgN/A
2:20 AM54 °FPassing clouds.3 mph82%29.74 "HgN/A
1:50 AM55 °FPassing clouds.5 mph77%29.74 "HgN/A
1:20 AM54 °FPassing clouds.5 mph82%29.74 "HgN/A
Weather by CustomWeather, © 2015

See weather overviewHow to use our weather pages